Weather History for Grand Marais, MN

Change the Weather History Date:

Thursday, November 15, 2012

  Actual Average (KCKC) Record (KCKC)
Temperature  
Mean Temperature 38 °F -  
Max Temperature 48 °F 31 °F 55 °F (2001)
Min Temperature 28 °F 20 °F 1 °F (2002)
Degree Days  
Heating Degree Days 27    
Moisture  
Dew Point 23 °F    
Average Humidity 63    
Maximum Humidity 92    
Minimum Humidity 34    
Precipitation  
Precipitation 0.00 in - - ()
Sea Level Pressure  
Sea Level Pressure 30.24 in    
Wind  
Wind Speed 4 mph (WNW)    
Max Wind Speed 10 mph    
Max Gust Speed 18 mph    
Averages and records for this station are not official NWS values.
T = Trace of Precipitation, MM = Missing Value Source: NWS Daily Summary

Daily Weather History Graph

Daily Weather History Graph

Search for Another Location

Airport:

Trip Planner

Search our weather history database for the weather conditions in past years. The results will help you decide how hot, cold, wet, or windy it might be!

Date:

Astronomy

Nov. 15, 2012 Rise Set
Actual Time 7:07 AM CST 4:23 PM CST
Civil Twilight 6:33 AM CST 4:57 PM CST
Nautical Twilight 5:56 AM CST 5:35 PM CST
Astronomical Twilight 5:19 AM CST 6:11 PM CST
Moon 9:08 AM CST (11/15) 6:10 PM CST (11/15)
Length of Visible Light 10h 23m
Length of Day
9h 16m
Waxing Crescent, 5% of the Moon is Illuminated
Nov 15
Waxing Crescent
Nov 20
First Quarter
Nov 28
Full
Dec 6
Last Quarter
Dec 13
New

Hourly Weather History & Observations

Time (CST) Temp. Windchill Dew Point Humidity Pressure Visibility Wind Dir Wind Speed Gust Speed Precip Events Conditions
12:56 AM 30.9 °F 27.5 °F 28.9 °F 92% 30.14 in - NW 3.5 mph - N/A   Unknown
1:56 AM 30.9 °F 27.5 °F 28.0 °F 89% 30.14 in - NW 3.5 mph - N/A   Unknown
2:56 AM 30.9 °F 27.5 °F 28.0 °F 89% 30.12 in - NW 3.5 mph - N/A   Unknown
3:56 AM 30.9 °F 27.5 °F 28.0 °F 89% 30.11 in - NW 3.5 mph - N/A   Unknown
4:56 AM 30.9 °F 27.5 °F 28.0 °F 89% 30.11 in - NW 3.5 mph - N/A   Unknown
5:56 AM 30.9 °F 27.5 °F 28.0 °F 89% 30.10 in - NNW 3.5 mph - N/A   Unknown
6:56 AM 30.9 °F - 28.9 °F 92% 30.10 in - Calm Calm - N/A   Unknown
7:56 AM 36.0 °F 33.3 °F 33.1 °F 89% 30.11 in - WNW 3.5 mph - N/A   Unknown
8:56 AM 41.0 °F 36.4 °F 36.0 °F 82% 30.11 in - West 6.9 mph - N/A   Unknown
9:56 AM 45.0 °F 39.7 °F 36.0 °F 71% 30.12 in - WSW 10.4 mph - N/A   Unknown
10:56 AM 46.9 °F - 33.1 °F 59% 30.13 in - West 10.4 mph 18.4 mph N/A   Unknown
11:56 AM 48.0 °F - 27.0 °F 44% 30.14 in - WNW 8.1 mph 18.4 mph N/A   Unknown
12:56 PM 48.0 °F - 24.1 °F 39% 30.16 in - Variable 6.9 mph 17.3 mph N/A   Unknown
1:56 PM 46.9 °F - 19.9 °F 34% 30.19 in - WNW 9.2 mph - N/A   Unknown
2:56 PM 45.0 °F 42.6 °F 18.0 °F 34% 30.24 in - Variable 4.6 mph - N/A   Unknown
3:56 PM 39.9 °F 36.7 °F 16.0 °F 38% 30.29 in - Variable 4.6 mph - N/A   Unknown
4:56 PM 37.9 °F - 14.0 °F 38% 30.32 in - Calm Calm - N/A   Unknown
5:56 PM 35.1 °F - 14.0 °F 42% 30.37 in - Calm Calm - N/A   Unknown
6:56 PM 34.0 °F 31.0 °F 17.1 °F 50% 30.40 in - Variable 3.5 mph - N/A   Unknown
7:56 PM 32.0 °F 27.5 °F 16.0 °F 52% 30.42 in - NNW 4.6 mph - N/A   Unknown
8:56 PM 32.0 °F 26.4 °F 17.1 °F 54% 30.45 in - South 5.8 mph - N/A   Unknown
9:56 PM 30.9 °F - 15.1 °F 52% 30.46 in - Calm Calm - N/A   Unknown
10:56 PM 28.9 °F 22.8 °F 12.9 °F 51% 30.47 in - Variable 5.8 mph - N/A   Unknown
11:56 PM 28.0 °F 18.6 °F 12.9 °F 53% 30.48 in - NNW 10.4 mph 17.3 mph N/A   Unknown